This is the latest recevied weather packets stored in our database for station/object OE6PWE-13. If no packets are shown the sender has not sent any weather packets the latest 10 day(s).
| Time | Temp. | Humidity | Pressure | Rain* | Wind** | Luminosity | Snow |
|---|---|---|---|---|---|---|---|
| 1788015612 | 27.22° C | 52% | 1015 hPa | 0 mm | - | - | - |
| 1788014712 | 26.67° C | 55% | 1015 hPa | 0 mm | - | - | - |
| 1788013811 | 26.67° C | 54% | 1015 hPa | 0 mm | - | - | - |
| 1788012911 | 26.11° C | 56% | 1015 hPa | 0 mm | - | - | - |
| 1788012012 | 26.67° C | 56% | 1015 hPa | 0 mm | - | - | - |
| 1788011112 | 27.78° C | 47% | 1015 hPa | 0 mm | - | - | - |
| 1788010215 | 26.11° C | 51% | 1016 hPa | 0 mm | - | - | - |
| 1788009312 | 26.11° C | 50% | 1016 hPa | 0 mm | - | - | - |
| 1788008412 | 25.56° C | 55% | 1016 hPa | 0 mm | - | - | - |
| 1788007512 | 24.44° C | 58% | 1016 hPa | 0 mm | - | - | - |
| 1788006612 | 24.44° C | 62% | 1017 hPa | 0 mm | - | - | - |
| 1788005712 | 23.33° C | 61% | 1017 hPa | 0 mm | - | - | - |
| 1788004812 | 23.89° C | 61% | 1017 hPa | 0 mm | - | - | - |
| 1788003912 | 23.89° C | 65% | 1017 hPa | 0 mm | - | - | - |
| 1788003012 | 22.78° C | 68% | 1017 hPa | 0 mm | - | - | - |
| 1788002111 | 22.78° C | 70% | 1017 hPa | 0 mm | - | - | - |
| 1788001211 | 23.33° C | 67% | 1017 hPa | 0 mm | - | - | - |
| 1788000312 | 22.78° C | 67% | 1017 hPa | 0 mm | - | - | - |
| 1787999411 | 23.33° C | 69% | 1017 hPa | 0 mm | - | - | - |
| 1787998512 | 24.44° C | 64% | 1017 hPa | 0 mm | - | - | - |
| 1787997612 | 24.44° C | 59% | 1017 hPa | 0 mm | - | - | - |
| 1787996712 | 25.56° C | 59% | 1017 hPa | 0 mm | - | - | - |
| 1787995812 | 26.11° C | 56% | 1016 hPa | 0 mm | - | - | - |
| 1787994912 | 25° C | 51% | 1016 hPa | 0 mm | - | - | - |
| 1787994012 | 26.11° C | 53% | 1016 hPa | 0 mm | - | - | - |
* Rain latest hour (hover to see other rain measurements)
** Current wind speed in m/s (hover to see current wind gust speed)